Data supplied by UK-AIR on 30/3/2010
All Data GMT hour ending 
Status: R =Ratified P=Provisional,P*=As supplied
,,Newcastle Cradlewell Roadside,,,,,,,,,,,,,,,,,,,,,,,
Date,time,"Nitric oxide",status,unit,"Nitrogen dioxide",status,unit,"Nitrogen oxides as nitrogen dioxide",status,unit
 
01-01-2009,01:00,74,R,ugm-3,59,R,ugm-3,172,R,ugm-3
01-01-2009,02:00,141,R,ugm-3,80,R,ugm-3,296,R,ugm-3
01-01-2009,03:00,99,R,ugm-3,69,R,ugm-3,220,R,ugm-3
01-01-2009,04:00,79,R,ugm-3,59,R,ugm-3,180,R,ugm-3
01-01-2009,05:00,48,R,ugm-3,48,R,ugm-3,120,R,ugm-3
01-01-2009,06:00,25,R,ugm-3,36,R,ugm-3,74,R,ugm-3
01-01-2009,07:00,15,R,ugm-3,27,R,ugm-3,50,R,ugm-3
01-01-2009,08:00,21,R,ugm-3,32,R,ugm-3,65,R,ugm-3
01-01-2009,09:00,16,R,ugm-3,32,R,ugm-3,57,R,ugm-3
01-01-2009,10:00,24,R,ugm-3,34,R,ugm-3,71,R,ugm-3
01-01-2009,11:00,45,R,ugm-3,46,R,ugm-3,115,R,ugm-3
01-01-2009,12:00,75,R,ugm-3,67,R,ugm-3,181,R,ugm-3
01-01-2009,13:00,81,R,ugm-3,65,R,ugm-3,189,R,ugm-3
01-01-2009,14:00,73,R,ugm-3,61,R,ugm-3,172,R,ugm-3
01-01-2009,15:00,78,R,ugm-3,73,R,ugm-3,191,R,ugm-3
01-01-2009,16:00,60,R,ugm-3,65,R,ugm-3,157,R,ugm-3
01-01-2009,17:00,78,R,ugm-3,74,R,ugm-3,193,R,ugm-3
01-01-2009,18:00,23,R,ugm-3,48,R,ugm-3,82,R,ugm-3
01-01-2009,19:00,9,R,ugm-3,29,R,ugm-3,42,R,ugm-3
01-01-2009,20:00,5,R,ugm-3,32,R,ugm-3,40,R,ugm-3
01-01-2009,21:00,24,R,ugm-3,32,R,ugm-3,69,R,ugm-3
01-01-2009,22:00,14,R,ugm-3,21,R,ugm-3,42,R,ugm-3
01-01-2009,23:00,10,R,ugm-3,25,R,ugm-3,40,R,ugm-3
01-01-2009,24:00,8,R,ugm-3,11,R,ugm-3,23,R,ugm-3
02-01-2009,01:00,1,R,ugm-3,15,R,ugm-3,17,R,ugm-3
02-01-2009,02:00,5,R,ugm-3,27,R,ugm-3,34,R,ugm-3
02-01-2009,03:00,30,R,ugm-3,50,R,ugm-3,96,R,ugm-3
02-01-2009,04:00,9,R,ugm-3,31,R,ugm-3,44,R,ugm-3
02-01-2009,05:00,6,R,ugm-3,13,R,ugm-3,23,R,ugm-3
02-01-2009,06:00,11,R,ugm-3,34,R,ugm-3,52,R,ugm-3
02-01-2009,07:00,13,R,ugm-3,32,R,ugm-3,52,R,ugm-3
02-01-2009,08:00,9,R,ugm-3,29,R,ugm-3,42,R,ugm-3
02-01-2009,09:00,106,R,ugm-3,97,R,ugm-3,260,R,ugm-3
02-01-2009,10:00,253,R,ugm-3,134,R,ugm-3,520,R,ugm-3
02-01-2009,11:00,438,R,ugm-3,178,R,ugm-3,846,R,ugm-3
02-01-2009,12:00,278,R,ugm-3,134,R,ugm-3,558,R,ugm-3
02-01-2009,13:00,139,R,ugm-3,101,R,ugm-3,313,R,ugm-3
02-01-2009,14:00,94,R,ugm-3,94,R,ugm-3,237,R,ugm-3
02-01-2009,15:00,101,R,ugm-3,99,R,ugm-3,254,R,ugm-3
02-01-2009,16:00,98,R,ugm-3,86,R,ugm-3,235,R,ugm-3
02-01-2009,17:00,6,R,ugm-3,32,R,ugm-3,42,R,ugm-3
02-01-2009,18:00,25,R,ugm-3,61,R,ugm-3,99,R,ugm-3
02-01-2009,19:00,16,R,ugm-3,59,R,ugm-3,84,R,ugm-3
02-01-2009,20:00,39,R,ugm-3,82,R,ugm-3,141,R,ugm-3
02-01-2009,21:00,60,R,ugm-3,92,R,ugm-3,183,R,ugm-3
02-01-2009,22:00,101,R,ugm-3,94,R,ugm-3,248,R,ugm-3
02-01-2009,23:00,36,R,ugm-3,65,R,ugm-3,120,R,ugm-3
02-01-2009,24:00,25,R,ugm-3,57,R,ugm-3,96,R,ugm-3
03-01-2009,01:00,14,R,ugm-3,44,R,ugm-3,65,R,ugm-3
03-01-2009,02:00,30,R,ugm-3,46,R,ugm-3,92,R,ugm-3
03-01-2009,03:00,3,R,ugm-3,21,R,ugm-3,25,R,ugm-3
03-01-2009,04:00,5,R,ugm-3,23,R,ugm-3,31,R,ugm-3
03-01-2009,05:00,3,R,ugm-3,17,R,ugm-3,21,R,ugm-3
03-01-2009,06:00,1,R,ugm-3,15,R,ugm-3,17,R,ugm-3
03-01-2009,07:00,6,R,ugm-3,15,R,ugm-3,25,R,ugm-3
03-01-2009,08:00,9,R,ugm-3,17,R,ugm-3,31,R,ugm-3
03-01-2009,09:00,8,R,ugm-3,17,R,ugm-3,29,R,ugm-3
03-01-2009,10:00,1,R,ugm-3,13,R,ugm-3,15,R,ugm-3
03-01-2009,11:00,4,R,ugm-3,11,R,ugm-3,17,R,ugm-3
03-01-2009,12:00,6,R,ugm-3,10,R,ugm-3,19,R,ugm-3
03-01-2009,13:00,8,R,ugm-3,11,R,ugm-3,23,R,ugm-3
03-01-2009,14:00,10,R,ugm-3,11,R,ugm-3,27,R,ugm-3
03-01-2009,15:00,10,R,ugm-3,17,R,ugm-3,32,R,ugm-3
03-01-2009,16:00,6,R,ugm-3,19,R,ugm-3,29,R,ugm-3
03-01-2009,17:00,16,R,ugm-3,32,R,ugm-3,57,R,ugm-3
03-01-2009,18:00,10,R,ugm-3,25,R,ugm-3,40,R,ugm-3
03-01-2009,19:00,10,R,ugm-3,27,R,ugm-3,42,R,ugm-3
03-01-2009,20:00,21,R,ugm-3,34,R,ugm-3,67,R,ugm-3
03-01-2009,21:00,24,R,ugm-3,38,R,ugm-3,74,R,ugm-3
03-01-2009,22:00,14,R,ugm-3,31,R,ugm-3,52,R,ugm-3
03-01-2009,23:00,10,R,ugm-3,23,R,ugm-3,38,R,ugm-3
03-01-2009,24:00,19,R,ugm-3,23,R,ugm-3,52,R,ugm-3
04-01-2009,01:00,8,R,ugm-3,15,R,ugm-3,27,R,ugm-3
04-01-2009,02:00,9,R,ugm-3,17,R,ugm-3,31,R,ugm-3
04-01-2009,03:00,8,R,ugm-3,13,R,ugm-3,25,R,ugm-3
04-01-2009,04:00,3,R,ugm-3,11,R,ugm-3,15,R,ugm-3
04-01-2009,05:00,1,R,ugm-3,8,R,ugm-3,10,R,ugm-3
04-01-2009,06:00,1,R,ugm-3,8,R,ugm-3,10,R,ugm-3
04-01-2009,07:00,4,R,ugm-3,13,R,ugm-3,19,R,ugm-3
04-01-2009,08:00,8,R,ugm-3,17,R,ugm-3,29,R,ugm-3
04-01-2009,09:00,5,R,ugm-3,13,R,ugm-3,21,R,ugm-3
04-01-2009,10:00,13,R,ugm-3,17,R,ugm-3,36,R,ugm-3
04-01-2009,11:00,10,R,ugm-3,15,R,ugm-3,31,R,ugm-3
04-01-2009,12:00,14,R,ugm-3,25,R,ugm-3,46,R,ugm-3
04-01-2009,13:00,16,R,ugm-3,29,R,ugm-3,53,R,ugm-3
04-01-2009,14:00,13,R,ugm-3,25,R,ugm-3,44,R,ugm-3
04-01-2009,15:00,10,R,ugm-3,23,R,ugm-3,38,R,ugm-3
04-01-2009,16:00,6,R,ugm-3,21,R,ugm-3,31,R,ugm-3
04-01-2009,17:00,6,R,ugm-3,31,R,ugm-3,40,R,ugm-3
04-01-2009,18:00,9,R,ugm-3,31,R,ugm-3,44,R,ugm-3
04-01-2009,19:00,6,R,ugm-3,21,R,ugm-3,31,R,ugm-3
04-01-2009,20:00,6,R,ugm-3,19,R,ugm-3,29,R,ugm-3
04-01-2009,21:00,4,R,ugm-3,21,R,ugm-3,27,R,ugm-3
04-01-2009,22:00,10,R,ugm-3,31,R,ugm-3,46,R,ugm-3
04-01-2009,23:00,8,R,ugm-3,27,R,ugm-3,38,R,ugm-3
04-01-2009,24:00,1,R,ugm-3,4,R,ugm-3,6,R,ugm-3
05-01-2009,01:00,0,R,ugm-3,0,R,ugm-3,0,R,ugm-3
05-01-2009,02:00,0,R,ugm-3,2,R,ugm-3,2,R,ugm-3
05-01-2009,03:00,0,R,ugm-3,0,R,ugm-3,0,R,ugm-3
05-01-2009,04:00,3,R,ugm-3,2,R,ugm-3,6,R,ugm-3
05-01-2009,05:00,5,R,ugm-3,11,R,ugm-3,19,R,ugm-3
05-01-2009,06:00,8,R,ugm-3,19,R,ugm-3,31,R,ugm-3
05-01-2009,07:00,103,R,ugm-3,88,R,ugm-3,244,R,ugm-3
05-01-2009,08:00,116,R,ugm-3,105,R,ugm-3,283,R,ugm-3
05-01-2009,09:00,120,R,ugm-3,103,R,ugm-3,287,R,ugm-3
05-01-2009,10:00,161,R,ugm-3,113,R,ugm-3,359,R,ugm-3
05-01-2009,11:00,176,R,ugm-3,124,R,ugm-3,393,R,ugm-3
05-01-2009,12:00,119,R,ugm-3,94,R,ugm-3,275,R,ugm-3
05-01-2009,13:00,86,R,ugm-3,86,R,ugm-3,218,R,ugm-3
05-01-2009,14:00,109,R,ugm-3,94,R,ugm-3,260,R,ugm-3
05-01-2009,15:00,133,R,ugm-3,111,R,ugm-3,313,R,ugm-3
05-01-2009,16:00,193,R,ugm-3,147,R,ugm-3,441,R,ugm-3
05-01-2009,17:00,221,R,ugm-3,151,R,ugm-3,489,R,ugm-3
05-01-2009,18:00,170,R,ugm-3,130,R,ugm-3,390,R,ugm-3
05-01-2009,19:00,281,R,ugm-3,170,R,ugm-3,600,R,ugm-3
05-01-2009,20:00,255,R,ugm-3,159,R,ugm-3,548,R,ugm-3
05-01-2009,21:00,216,R,ugm-3,126,R,ugm-3,456,R,ugm-3
05-01-2009,22:00,121,R,ugm-3,99,R,ugm-3,285,R,ugm-3
05-01-2009,23:00,74,R,ugm-3,74,R,ugm-3,187,R,ugm-3
05-01-2009,24:00,73,R,ugm-3,74,R,ugm-3,185,R,ugm-3
06-01-2009,01:00,31,R,ugm-3,57,R,ugm-3,105,R,ugm-3
06-01-2009,02:00,19,R,ugm-3,46,R,ugm-3,74,R,ugm-3
06-01-2009,03:00,15,R,ugm-3,34,R,ugm-3,57,R,ugm-3
06-01-2009,04:00,11,R,ugm-3,31,R,ugm-3,48,R,ugm-3
06-01-2009,05:00,3,R,ugm-3,34,R,ugm-3,38,R,ugm-3
06-01-2009,06:00,40,R,ugm-3,63,R,ugm-3,124,R,ugm-3
06-01-2009,07:00,115,R,ugm-3,99,R,ugm-3,275,R,ugm-3
06-01-2009,08:00,238,R,ugm-3,151,R,ugm-3,514,R,ugm-3
06-01-2009,09:00,163,R,ugm-3,124,R,ugm-3,372,R,ugm-3
06-01-2009,10:00,186,R,ugm-3,128,R,ugm-3,413,R,ugm-3
06-01-2009,11:00,154,R,ugm-3,107,R,ugm-3,342,R,ugm-3
06-01-2009,12:00,74,R,ugm-3,69,R,ugm-3,181,R,ugm-3
06-01-2009,13:00,39,R,ugm-3,44,R,ugm-3,103,R,ugm-3
06-01-2009,14:00,26,R,ugm-3,32,R,ugm-3,73,R,ugm-3
06-01-2009,15:00,11,R,ugm-3,23,R,ugm-3,40,R,ugm-3
06-01-2009,16:00,13,R,ugm-3,25,R,ugm-3,44,R,ugm-3
06-01-2009,17:00,26,R,ugm-3,36,R,ugm-3,76,R,ugm-3
06-01-2009,18:00,11,R,ugm-3,27,R,ugm-3,44,R,ugm-3
06-01-2009,19:00,9,R,ugm-3,25,R,ugm-3,38,R,ugm-3
06-01-2009,20:00,6,R,ugm-3,25,R,ugm-3,34,R,ugm-3
06-01-2009,21:00,3,R,ugm-3,19,R,ugm-3,23,R,ugm-3
06-01-2009,22:00,1,R,ugm-3,17,R,ugm-3,19,R,ugm-3
06-01-2009,23:00,3,R,ugm-3,13,R,ugm-3,17,R,ugm-3
06-01-2009,24:00,0,R,ugm-3,11,R,ugm-3,11,R,ugm-3
07-01-2009,01:00,1,R,ugm-3,2,R,ugm-3,4,R,ugm-3
07-01-2009,02:00,1,R,ugm-3,0,R,ugm-3,2,R,ugm-3
07-01-2009,03:00,1,R,ugm-3,2,R,ugm-3,4,R,ugm-3
07-01-2009,04:00,3,R,ugm-3,2,R,ugm-3,6,R,ugm-3
07-01-2009,05:00,3,R,ugm-3,4,R,ugm-3,8,R,ugm-3
07-01-2009,06:00,5,R,ugm-3,6,R,ugm-3,13,R,ugm-3
07-01-2009,07:00,10,R,ugm-3,11,R,ugm-3,27,R,ugm-3
07-01-2009,08:00,16,R,ugm-3,31,R,ugm-3,55,R,ugm-3
07-01-2009,09:00,93,R,ugm-3,80,R,ugm-3,222,R,ugm-3
07-01-2009,10:00,28,R,ugm-3,42,R,ugm-3,84,R,ugm-3
07-01-2009,11:00,26,R,ugm-3,40,R,ugm-3,80,R,ugm-3
07-01-2009,12:00,48,R,ugm-3,48,R,ugm-3,120,R,ugm-3
07-01-2009,13:00,79,R,ugm-3,61,R,ugm-3,181,R,ugm-3
07-01-2009,14:00,55,R,ugm-3,52,R,ugm-3,136,R,ugm-3
07-01-2009,15:00,116,R,ugm-3,80,R,ugm-3,258,R,ugm-3
07-01-2009,16:00,144,R,ugm-3,103,R,ugm-3,323,R,ugm-3
07-01-2009,17:00,166,R,ugm-3,103,R,ugm-3,357,R,ugm-3
07-01-2009,18:00,268,R,ugm-3,141,R,ugm-3,550,R,ugm-3
07-01-2009,19:00,231,R,ugm-3,126,R,ugm-3,479,R,ugm-3
07-01-2009,20:00,129,R,ugm-3,92,R,ugm-3,288,R,ugm-3
07-01-2009,21:00,89,R,ugm-3,78,R,ugm-3,214,R,ugm-3
07-01-2009,22:00,130,R,ugm-3,78,R,ugm-3,277,R,ugm-3
07-01-2009,23:00,144,R,ugm-3,76,R,ugm-3,296,R,ugm-3
07-01-2009,24:00,110,R,ugm-3,65,R,ugm-3,233,R,ugm-3
08-01-2009,01:00,76,R,ugm-3,46,R,ugm-3,162,R,ugm-3
08-01-2009,02:00,9,R,ugm-3,15,R,ugm-3,29,R,ugm-3
08-01-2009,03:00,1,R,ugm-3,10,R,ugm-3,11,R,ugm-3
08-01-2009,04:00,5,R,ugm-3,6,R,ugm-3,13,R,ugm-3
08-01-2009,05:00,5,R,ugm-3,4,R,ugm-3,11,R,ugm-3
08-01-2009,06:00,30,R,ugm-3,27,R,ugm-3,73,R,ugm-3
08-01-2009,07:00,75,R,ugm-3,48,R,ugm-3,162,R,ugm-3
08-01-2009,08:00,293,R,ugm-3,132,R,ugm-3,579,R,ugm-3
08-01-2009,09:00,324,R,ugm-3,153,R,ugm-3,647,R,ugm-3
08-01-2009,10:00,373,R,ugm-3,155,R,ugm-3,724,R,ugm-3
08-01-2009,11:00,186,R,ugm-3,96,R,ugm-3,380,R,ugm-3
08-01-2009,12:00,78,R,ugm-3,50,R,ugm-3,168,R,ugm-3
08-01-2009,13:00,66,R,ugm-3,55,R,ugm-3,157,R,ugm-3
08-01-2009,14:00,78,R,ugm-3,59,R,ugm-3,178,R,ugm-3
08-01-2009,15:00,71,R,ugm-3,55,R,ugm-3,164,R,ugm-3
08-01-2009,16:00,89,R,ugm-3,73,R,ugm-3,208,R,ugm-3
08-01-2009,17:00,204,R,ugm-3,124,R,ugm-3,435,R,ugm-3
08-01-2009,18:00,206,R,ugm-3,124,R,ugm-3,439,R,ugm-3
08-01-2009,19:00,146,R,ugm-3,107,R,ugm-3,330,R,ugm-3
08-01-2009,20:00,136,R,ugm-3,99,R,ugm-3,308,R,ugm-3
08-01-2009,21:00,131,R,ugm-3,92,R,ugm-3,292,R,ugm-3
08-01-2009,22:00,264,R,ugm-3,122,R,ugm-3,525,R,ugm-3
08-01-2009,23:00,258,R,ugm-3,109,R,ugm-3,502,R,ugm-3
08-01-2009,24:00,175,R,ugm-3,92,R,ugm-3,359,R,ugm-3
09-01-2009,01:00,100,R,ugm-3,73,R,ugm-3,225,R,ugm-3
09-01-2009,02:00,103,R,ugm-3,61,R,ugm-3,218,R,ugm-3
09-01-2009,03:00,116,R,ugm-3,71,R,ugm-3,248,R,ugm-3
09-01-2009,04:00,133,R,ugm-3,73,R,ugm-3,275,R,ugm-3
09-01-2009,05:00,100,R,ugm-3,74,R,ugm-3,227,R,ugm-3
09-01-2009,06:00,50,R,ugm-3,59,R,ugm-3,136,R,ugm-3
09-01-2009,07:00,350,R,ugm-3,136,R,ugm-3,670,R,ugm-3
09-01-2009,08:00,468,R,ugm-3,191,R,ugm-3,905,R,ugm-3
09-01-2009,09:00,664,R,ugm-3,231,R,ugm-3,1245,R,ugm-3
09-01-2009,10:00,514,R,ugm-3,193,R,ugm-3,978,R,ugm-3
09-01-2009,11:00,201,R,ugm-3,109,R,ugm-3,416,R,ugm-3
09-01-2009,12:00,186,R,ugm-3,109,R,ugm-3,393,R,ugm-3
09-01-2009,13:00,168,R,ugm-3,107,R,ugm-3,363,R,ugm-3
09-01-2009,14:00,110,R,ugm-3,78,R,ugm-3,246,R,ugm-3
09-01-2009,15:00,133,R,ugm-3,94,R,ugm-3,296,R,ugm-3
09-01-2009,16:00,171,R,ugm-3,124,R,ugm-3,386,R,ugm-3
09-01-2009,17:00,114,R,ugm-3,96,R,ugm-3,269,R,ugm-3
09-01-2009,18:00,128,R,ugm-3,97,R,ugm-3,292,R,ugm-3
09-01-2009,19:00,138,R,ugm-3,105,R,ugm-3,315,R,ugm-3
09-01-2009,20:00,128,R,ugm-3,94,R,ugm-3,288,R,ugm-3
09-01-2009,21:00,85,R,ugm-3,73,R,ugm-3,202,R,ugm-3
09-01-2009,22:00,118,R,ugm-3,78,R,ugm-3,258,R,ugm-3
09-01-2009,23:00,96,R,ugm-3,71,R,ugm-3,218,R,ugm-3
09-01-2009,24:00,121,R,ugm-3,80,R,ugm-3,265,R,ugm-3
10-01-2009,01:00,116,R,ugm-3,73,R,ugm-3,250,R,ugm-3
10-01-2009,02:00,86,R,ugm-3,63,R,ugm-3,195,R,ugm-3
10-01-2009,03:00,30,R,ugm-3,40,R,ugm-3,86,R,ugm-3
10-01-2009,04:00,38,R,ugm-3,52,R,ugm-3,109,R,ugm-3
10-01-2009,05:00,31,R,ugm-3,52,R,ugm-3,99,R,ugm-3
10-01-2009,06:00,51,R,ugm-3,59,R,ugm-3,138,R,ugm-3
10-01-2009,07:00,58,R,ugm-3,61,R,ugm-3,149,R,ugm-3
10-01-2009,08:00,66,R,ugm-3,59,R,ugm-3,160,R,ugm-3
10-01-2009,09:00,88,R,ugm-3,69,R,ugm-3,202,R,ugm-3
10-01-2009,10:00,74,R,ugm-3,61,R,ugm-3,174,R,ugm-3
10-01-2009,11:00,91,R,ugm-3,67,R,ugm-3,206,R,ugm-3
10-01-2009,12:00,69,R,ugm-3,57,R,ugm-3,162,R,ugm-3
10-01-2009,13:00,84,R,ugm-3,71,R,ugm-3,199,R,ugm-3
10-01-2009,14:00,71,R,ugm-3,67,R,ugm-3,176,R,ugm-3
10-01-2009,15:00,73,R,ugm-3,63,R,ugm-3,174,R,ugm-3
10-01-2009,16:00,66,R,ugm-3,67,R,ugm-3,168,R,ugm-3
10-01-2009,17:00,20,R,ugm-3,31,R,ugm-3,61,R,ugm-3
10-01-2009,18:00,69,R,ugm-3,69,R,ugm-3,174,R,ugm-3
10-01-2009,19:00,20,R,ugm-3,29,R,ugm-3,59,R,ugm-3
10-01-2009,20:00,11,R,ugm-3,19,R,ugm-3,36,R,ugm-3
10-01-2009,21:00,8,R,ugm-3,10,R,ugm-3,21,R,ugm-3
10-01-2009,22:00,6,R,ugm-3,13,R,ugm-3,23,R,ugm-3
10-01-2009,23:00,5,R,ugm-3,10,R,ugm-3,17,R,ugm-3
10-01-2009,24:00,8,R,ugm-3,11,R,ugm-3,23,R,ugm-3
11-01-2009,01:00,10,R,ugm-3,10,R,ugm-3,25,R,ugm-3
11-01-2009,02:00,9,R,ugm-3,4,R,ugm-3,17,R,ugm-3
11-01-2009,03:00,8,R,ugm-3,10,R,ugm-3,21,R,ugm-3
11-01-2009,04:00,9,R,ugm-3,8,R,ugm-3,21,R,ugm-3
11-01-2009,05:00,4,R,ugm-3,4,R,ugm-3,10,R,ugm-3
11-01-2009,06:00,1,R,ugm-3,4,R,ugm-3,6,R,ugm-3
11-01-2009,07:00,3,R,ugm-3,6,R,ugm-3,10,R,ugm-3
11-01-2009,08:00,4,R,ugm-3,4,R,ugm-3,10,R,ugm-3
11-01-2009,09:00,4,R,ugm-3,4,R,ugm-3,10,R,ugm-3
11-01-2009,10:00,5,R,ugm-3,8,R,ugm-3,15,R,ugm-3
11-01-2009,11:00,11,R,ugm-3,15,R,ugm-3,32,R,ugm-3
11-01-2009,12:00,14,R,ugm-3,21,R,ugm-3,42,R,ugm-3
11-01-2009,13:00,18,R,ugm-3,23,R,ugm-3,50,R,ugm-3
11-01-2009,14:00,18,R,ugm-3,23,R,ugm-3,50,R,ugm-3
11-01-2009,15:00,13,R,ugm-3,21,R,ugm-3,40,R,ugm-3
11-01-2009,16:00,11,R,ugm-3,19,R,ugm-3,36,R,ugm-3
11-01-2009,17:00,13,R,ugm-3,21,R,ugm-3,40,R,ugm-3
11-01-2009,18:00,13,R,ugm-3,21,R,ugm-3,40,R,ugm-3
11-01-2009,19:00,11,R,ugm-3,19,R,ugm-3,36,R,ugm-3
11-01-2009,20:00,10,R,ugm-3,11,R,ugm-3,27,R,ugm-3
11-01-2009,21:00,9,R,ugm-3,15,R,ugm-3,29,R,ugm-3
11-01-2009,22:00,8,R,ugm-3,11,R,ugm-3,23,R,ugm-3
11-01-2009,23:00,5,R,ugm-3,6,R,ugm-3,13,R,ugm-3
11-01-2009,24:00,6,R,ugm-3,4,R,ugm-3,13,R,ugm-3
12-01-2009,01:00,3,R,ugm-3,8,R,ugm-3,11,R,ugm-3
12-01-2009,02:00,1,R,ugm-3,6,R,ugm-3,8,R,ugm-3
12-01-2009,03:00,1,R,ugm-3,4,R,ugm-3,6,R,ugm-3
12-01-2009,04:00,1,R,ugm-3,4,R,ugm-3,6,R,ugm-3
12-01-2009,05:00,3,R,ugm-3,6,R,ugm-3,10,R,ugm-3
12-01-2009,06:00,5,R,ugm-3,10,R,ugm-3,17,R,ugm-3
12-01-2009,07:00,26,R,ugm-3,40,R,ugm-3,80,R,ugm-3
12-01-2009,08:00,110,R,ugm-3,105,R,ugm-3,273,R,ugm-3
12-01-2009,09:00,119,R,ugm-3,109,R,ugm-3,290,R,ugm-3
12-01-2009,10:00,119,R,ugm-3,107,R,ugm-3,288,R,ugm-3
12-01-2009,11:00,109,R,ugm-3,99,R,ugm-3,265,R,ugm-3
12-01-2009,12:00,60,R,ugm-3,69,R,ugm-3,160,R,ugm-3
12-01-2009,13:00,50,R,ugm-3,53,R,ugm-3,130,R,ugm-3
12-01-2009,14:00,69,R,ugm-3,65,R,ugm-3,170,R,ugm-3
12-01-2009,15:00,,,,,,,,,
12-01-2009,16:00,,,,,,,,,
12-01-2009,17:00,139,R,ugm-3,113,R,ugm-3,325,R,ugm-3
12-01-2009,18:00,108,R,ugm-3,97,R,ugm-3,262,R,ugm-3
12-01-2009,19:00,144,R,ugm-3,118,R,ugm-3,338,R,ugm-3
12-01-2009,20:00,73,R,ugm-3,82,R,ugm-3,193,R,ugm-3
12-01-2009,21:00,68,R,ugm-3,76,R,ugm-3,180,R,ugm-3
12-01-2009,22:00,81,R,ugm-3,82,R,ugm-3,206,R,ugm-3
12-01-2009,23:00,36,R,ugm-3,48,R,ugm-3,103,R,ugm-3
12-01-2009,24:00,41,R,ugm-3,57,R,ugm-3,120,R,ugm-3
13-01-2009,01:00,19,R,ugm-3,42,R,ugm-3,71,R,ugm-3
13-01-2009,02:00,11,R,ugm-3,34,R,ugm-3,52,R,ugm-3
13-01-2009,03:00,18,R,ugm-3,42,R,ugm-3,69,R,ugm-3
13-01-2009,04:00,13,R,ugm-3,31,R,ugm-3,50,R,ugm-3
13-01-2009,05:00,34,R,ugm-3,52,R,ugm-3,103,R,ugm-3
13-01-2009,06:00,33,R,ugm-3,57,R,ugm-3,107,R,ugm-3
13-01-2009,07:00,185,R,ugm-3,109,R,ugm-3,392,R,ugm-3
13-01-2009,08:00,194,R,ugm-3,132,R,ugm-3,428,R,ugm-3
13-01-2009,09:00,221,R,ugm-3,138,R,ugm-3,476,R,ugm-3
13-01-2009,10:00,263,R,ugm-3,147,R,ugm-3,548,R,ugm-3
13-01-2009,11:00,179,R,ugm-3,118,R,ugm-3,392,R,ugm-3
13-01-2009,12:00,94,R,ugm-3,86,R,ugm-3,229,R,ugm-3
13-01-2009,13:00,104,R,ugm-3,90,R,ugm-3,248,R,ugm-3
13-01-2009,14:00,30,R,ugm-3,48,R,ugm-3,94,R,ugm-3
13-01-2009,15:00,11,R,ugm-3,42,R,ugm-3,59,R,ugm-3
13-01-2009,16:00,25,R,ugm-3,57,R,ugm-3,96,R,ugm-3
13-01-2009,17:00,59,R,ugm-3,80,R,ugm-3,170,R,ugm-3
13-01-2009,18:00,95,R,ugm-3,90,R,ugm-3,235,R,ugm-3
13-01-2009,19:00,40,R,ugm-3,67,R,ugm-3,128,R,ugm-3
13-01-2009,20:00,48,R,ugm-3,71,R,ugm-3,143,R,ugm-3
13-01-2009,21:00,31,R,ugm-3,55,R,ugm-3,103,R,ugm-3
13-01-2009,22:00,21,R,ugm-3,46,R,ugm-3,78,R,ugm-3
13-01-2009,23:00,11,R,ugm-3,38,R,ugm-3,55,R,ugm-3
13-01-2009,24:00,6,R,ugm-3,23,R,ugm-3,32,R,ugm-3
14-01-2009,01:00,9,R,ugm-3,21,R,ugm-3,34,R,ugm-3
14-01-2009,02:00,9,R,ugm-3,19,R,ugm-3,32,R,ugm-3
14-01-2009,03:00,68,R,ugm-3,57,R,ugm-3,160,R,ugm-3
14-01-2009,04:00,23,R,ugm-3,40,R,ugm-3,74,R,ugm-3
14-01-2009,05:00,35,R,ugm-3,42,R,ugm-3,96,R,ugm-3
14-01-2009,06:00,50,R,ugm-3,59,R,ugm-3,136,R,ugm-3
14-01-2009,07:00,290,R,ugm-3,126,R,ugm-3,569,R,ugm-3
14-01-2009,08:00,425,R,ugm-3,181,R,ugm-3,831,R,ugm-3
14-01-2009,09:00,458,R,ugm-3,178,R,ugm-3,877,R,ugm-3
14-01-2009,10:00,300,R,ugm-3,159,R,ugm-3,617,R,ugm-3
14-01-2009,11:00,384,R,ugm-3,172,R,ugm-3,758,R,ugm-3
14-01-2009,12:00,276,R,ugm-3,149,R,ugm-3,571,R,ugm-3
14-01-2009,13:00,280,R,ugm-3,149,R,ugm-3,577,R,ugm-3
14-01-2009,14:00,270,R,ugm-3,147,R,ugm-3,560,R,ugm-3
14-01-2009,15:00,164,R,ugm-3,115,R,ugm-3,365,R,ugm-3
14-01-2009,16:00,155,R,ugm-3,115,R,ugm-3,351,R,ugm-3
14-01-2009,17:00,129,R,ugm-3,105,R,ugm-3,302,R,ugm-3
14-01-2009,18:00,148,R,ugm-3,118,R,ugm-3,344,R,ugm-3
14-01-2009,19:00,106,R,ugm-3,101,R,ugm-3,264,R,ugm-3
14-01-2009,20:00,69,R,ugm-3,88,R,ugm-3,193,R,ugm-3
14-01-2009,21:00,34,R,ugm-3,67,R,ugm-3,118,R,ugm-3
14-01-2009,22:00,25,R,ugm-3,55,R,ugm-3,94,R,ugm-3
14-01-2009,23:00,29,R,ugm-3,59,R,ugm-3,103,R,ugm-3
14-01-2009,24:00,8,R,ugm-3,44,R,ugm-3,55,R,ugm-3
15-01-2009,01:00,3,R,ugm-3,34,R,ugm-3,38,R,ugm-3
15-01-2009,02:00,5,R,ugm-3,31,R,ugm-3,38,R,ugm-3
15-01-2009,03:00,4,R,ugm-3,31,R,ugm-3,36,R,ugm-3
15-01-2009,04:00,5,R,ugm-3,29,R,ugm-3,36,R,ugm-3
15-01-2009,05:00,3,R,ugm-3,21,R,ugm-3,25,R,ugm-3
15-01-2009,06:00,9,R,ugm-3,23,R,ugm-3,36,R,ugm-3
15-01-2009,07:00,28,R,ugm-3,31,R,ugm-3,73,R,ugm-3
15-01-2009,08:00,40,R,ugm-3,44,R,ugm-3,105,R,ugm-3
15-01-2009,09:00,59,R,ugm-3,50,R,ugm-3,139,R,ugm-3
15-01-2009,10:00,53,R,ugm-3,48,R,ugm-3,128,R,ugm-3
15-01-2009,11:00,55,R,ugm-3,48,R,ugm-3,132,R,ugm-3
15-01-2009,12:00,45,R,ugm-3,42,R,ugm-3,111,R,ugm-3
15-01-2009,13:00,55,R,ugm-3,52,R,ugm-3,136,R,ugm-3
15-01-2009,14:00,55,R,ugm-3,50,R,ugm-3,134,R,ugm-3
15-01-2009,15:00,61,R,ugm-3,52,R,ugm-3,145,R,ugm-3
15-01-2009,16:00,45,R,ugm-3,52,R,ugm-3,120,R,ugm-3
15-01-2009,17:00,44,R,ugm-3,52,R,ugm-3,118,R,ugm-3
15-01-2009,18:00,43,R,ugm-3,52,R,ugm-3,117,R,ugm-3
15-01-2009,19:00,34,R,ugm-3,46,R,ugm-3,97,R,ugm-3
15-01-2009,20:00,23,R,ugm-3,44,R,ugm-3,78,R,ugm-3
15-01-2009,21:00,15,R,ugm-3,36,R,ugm-3,59,R,ugm-3
15-01-2009,22:00,13,R,ugm-3,32,R,ugm-3,52,R,ugm-3
15-01-2009,23:00,10,R,ugm-3,27,R,ugm-3,42,R,ugm-3
15-01-2009,24:00,10,R,ugm-3,25,R,ugm-3,40,R,ugm-3
16-01-2009,01:00,4,R,ugm-3,19,R,ugm-3,25,R,ugm-3
16-01-2009,02:00,0,R,ugm-3,17,R,ugm-3,17,R,ugm-3
16-01-2009,03:00,1,R,ugm-3,15,R,ugm-3,17,R,ugm-3
16-01-2009,04:00,5,R,ugm-3,19,R,ugm-3,27,R,ugm-3
16-01-2009,05:00,4,R,ugm-3,17,R,ugm-3,23,R,ugm-3
16-01-2009,06:00,15,R,ugm-3,27,R,ugm-3,50,R,ugm-3
16-01-2009,07:00,38,R,ugm-3,34,R,ugm-3,92,R,ugm-3
16-01-2009,08:00,76,R,ugm-3,57,R,ugm-3,174,R,ugm-3
16-01-2009,09:00,90,R,ugm-3,65,R,ugm-3,202,R,ugm-3
16-01-2009,10:00,81,R,ugm-3,61,R,ugm-3,185,R,ugm-3
16-01-2009,11:00,59,R,ugm-3,46,R,ugm-3,136,R,ugm-3
16-01-2009,12:00,79,R,ugm-3,55,R,ugm-3,176,R,ugm-3
16-01-2009,13:00,91,R,ugm-3,73,R,ugm-3,212,R,ugm-3
16-01-2009,14:00,109,R,ugm-3,69,R,ugm-3,235,R,ugm-3
16-01-2009,15:00,98,R,ugm-3,73,R,ugm-3,222,R,ugm-3
16-01-2009,16:00,69,R,ugm-3,61,R,ugm-3,166,R,ugm-3
16-01-2009,17:00,46,R,ugm-3,53,R,ugm-3,124,R,ugm-3
16-01-2009,18:00,63,R,ugm-3,59,R,ugm-3,155,R,ugm-3
16-01-2009,19:00,38,R,ugm-3,52,R,ugm-3,109,R,ugm-3
16-01-2009,20:00,33,R,ugm-3,52,R,ugm-3,101,R,ugm-3
16-01-2009,21:00,21,R,ugm-3,44,R,ugm-3,76,R,ugm-3
16-01-2009,22:00,14,R,ugm-3,36,R,ugm-3,57,R,ugm-3
16-01-2009,23:00,8,R,ugm-3,27,R,ugm-3,38,R,ugm-3
16-01-2009,24:00,8,R,ugm-3,25,R,ugm-3,36,R,ugm-3
17-01-2009,01:00,11,R,ugm-3,31,R,ugm-3,48,R,ugm-3
17-01-2009,02:00,16,R,ugm-3,32,R,ugm-3,57,R,ugm-3
17-01-2009,03:00,9,R,ugm-3,21,R,ugm-3,34,R,ugm-3
17-01-2009,04:00,6,R,ugm-3,17,R,ugm-3,27,R,ugm-3
17-01-2009,05:00,5,R,ugm-3,21,R,ugm-3,29,R,ugm-3
17-01-2009,06:00,4,R,ugm-3,15,R,ugm-3,21,R,ugm-3
17-01-2009,07:00,10,R,ugm-3,17,R,ugm-3,32,R,ugm-3
17-01-2009,08:00,31,R,ugm-3,36,R,ugm-3,84,R,ugm-3
17-01-2009,09:00,28,R,ugm-3,42,R,ugm-3,84,R,ugm-3
17-01-2009,10:00,26,R,ugm-3,38,R,ugm-3,78,R,ugm-3
17-01-2009,11:00,26,R,ugm-3,34,R,ugm-3,74,R,ugm-3
17-01-2009,12:00,36,R,ugm-3,38,R,ugm-3,94,R,ugm-3
17-01-2009,13:00,40,R,ugm-3,48,R,ugm-3,109,R,ugm-3
17-01-2009,14:00,51,R,ugm-3,61,R,ugm-3,139,R,ugm-3
17-01-2009,15:00,36,R,ugm-3,46,R,ugm-3,101,R,ugm-3
17-01-2009,16:00,40,R,ugm-3,53,R,ugm-3,115,R,ugm-3
17-01-2009,17:00,18,R,ugm-3,34,R,ugm-3,61,R,ugm-3
17-01-2009,18:00,11,R,ugm-3,25,R,ugm-3,42,R,ugm-3
17-01-2009,19:00,6,R,ugm-3,19,R,ugm-3,29,R,ugm-3
17-01-2009,20:00,5,R,ugm-3,19,R,ugm-3,27,R,ugm-3
17-01-2009,21:00,9,R,ugm-3,19,R,ugm-3,32,R,ugm-3
17-01-2009,22:00,10,R,ugm-3,21,R,ugm-3,36,R,ugm-3
17-01-2009,23:00,18,R,ugm-3,29,R,ugm-3,55,R,ugm-3
17-01-2009,24:00,56,R,ugm-3,73,R,ugm-3,159,R,ugm-3
18-01-2009,01:00,20,R,ugm-3,31,R,ugm-3,61,R,ugm-3
18-01-2009,02:00,18,R,ugm-3,23,R,ugm-3,50,R,ugm-3
18-01-2009,03:00,19,R,ugm-3,36,R,ugm-3,65,R,ugm-3
18-01-2009,04:00,10,R,ugm-3,13,R,ugm-3,29,R,ugm-3
18-01-2009,05:00,8,R,ugm-3,13,R,ugm-3,25,R,ugm-3
18-01-2009,06:00,4,R,ugm-3,10,R,ugm-3,15,R,ugm-3
18-01-2009,07:00,15,R,ugm-3,32,R,ugm-3,55,R,ugm-3
18-01-2009,08:00,3,R,ugm-3,13,R,ugm-3,17,R,ugm-3
18-01-2009,09:00,14,R,ugm-3,25,R,ugm-3,46,R,ugm-3
18-01-2009,10:00,20,R,ugm-3,31,R,ugm-3,61,R,ugm-3
18-01-2009,11:00,23,R,ugm-3,25,R,ugm-3,59,R,ugm-3
18-01-2009,12:00,18,R,ugm-3,25,R,ugm-3,52,R,ugm-3
18-01-2009,13:00,21,R,ugm-3,21,R,ugm-3,53,R,ugm-3
18-01-2009,14:00,18,R,ugm-3,23,R,ugm-3,50,R,ugm-3
18-01-2009,15:00,18,R,ugm-3,25,R,ugm-3,52,R,ugm-3
18-01-2009,16:00,16,R,ugm-3,23,R,ugm-3,48,R,ugm-3
18-01-2009,17:00,23,R,ugm-3,31,R,ugm-3,65,R,ugm-3
18-01-2009,18:00,21,R,ugm-3,25,R,ugm-3,57,R,ugm-3
18-01-2009,19:00,18,R,ugm-3,29,R,ugm-3,55,R,ugm-3
18-01-2009,20:00,16,R,ugm-3,25,R,ugm-3,50,R,ugm-3
18-01-2009,21:00,16,R,ugm-3,27,R,ugm-3,52,R,ugm-3
18-01-2009,22:00,19,R,ugm-3,27,R,ugm-3,55,R,ugm-3
18-01-2009,23:00,16,R,ugm-3,21,R,ugm-3,46,R,ugm-3
18-01-2009,24:00,14,R,ugm-3,19,R,ugm-3,40,R,ugm-3
19-01-2009,01:00,4,R,ugm-3,11,R,ugm-3,17,R,ugm-3
19-01-2009,02:00,1,R,ugm-3,10,R,ugm-3,11,R,ugm-3
19-01-2009,03:00,5,R,ugm-3,15,R,ugm-3,23,R,ugm-3
19-01-2009,04:00,6,R,ugm-3,8,R,ugm-3,17,R,ugm-3
19-01-2009,05:00,3,R,ugm-3,6,R,ugm-3,10,R,ugm-3
19-01-2009,06:00,5,R,ugm-3,11,R,ugm-3,19,R,ugm-3
19-01-2009,07:00,20,R,ugm-3,29,R,ugm-3,59,R,ugm-3
19-01-2009,08:00,40,R,ugm-3,52,R,ugm-3,113,R,ugm-3
19-01-2009,09:00,65,R,ugm-3,59,R,ugm-3,159,R,ugm-3
19-01-2009,10:00,49,R,ugm-3,55,R,ugm-3,130,R,ugm-3
19-01-2009,11:00,41,R,ugm-3,52,R,ugm-3,115,R,ugm-3
19-01-2009,12:00,53,R,ugm-3,55,R,ugm-3,136,R,ugm-3
19-01-2009,13:00,64,R,ugm-3,61,R,ugm-3,159,R,ugm-3
19-01-2009,14:00,73,R,ugm-3,78,R,ugm-3,189,R,ugm-3
19-01-2009,15:00,34,R,ugm-3,44,R,ugm-3,96,R,ugm-3
19-01-2009,16:00,24,R,ugm-3,42,R,ugm-3,78,R,ugm-3
19-01-2009,17:00,70,R,ugm-3,78,R,ugm-3,185,R,ugm-3
19-01-2009,18:00,100,R,ugm-3,97,R,ugm-3,250,R,ugm-3
19-01-2009,19:00,46,R,ugm-3,61,R,ugm-3,132,R,ugm-3
19-01-2009,20:00,36,R,ugm-3,53,R,ugm-3,109,R,ugm-3
19-01-2009,21:00,66,R,ugm-3,82,R,ugm-3,183,R,ugm-3
19-01-2009,22:00,61,R,ugm-3,69,R,ugm-3,162,R,ugm-3
19-01-2009,23:00,38,R,ugm-3,53,R,ugm-3,111,R,ugm-3
19-01-2009,24:00,16,R,ugm-3,36,R,ugm-3,61,R,ugm-3
20-01-2009,01:00,8,R,ugm-3,23,R,ugm-3,34,R,ugm-3
20-01-2009,02:00,8,R,ugm-3,21,R,ugm-3,32,R,ugm-3
20-01-2009,03:00,6,R,ugm-3,19,R,ugm-3,29,R,ugm-3
20-01-2009,04:00,4,R,ugm-3,8,R,ugm-3,13,R,ugm-3
20-01-2009,05:00,3,R,ugm-3,8,R,ugm-3,11,R,ugm-3
20-01-2009,06:00,6,R,ugm-3,13,R,ugm-3,23,R,ugm-3
20-01-2009,07:00,48,R,ugm-3,55,R,ugm-3,128,R,ugm-3
20-01-2009,08:00,184,R,ugm-3,132,R,ugm-3,413,R,ugm-3
20-01-2009,09:00,214,R,ugm-3,147,R,ugm-3,474,R,ugm-3
20-01-2009,10:00,189,R,ugm-3,136,R,ugm-3,424,R,ugm-3
20-01-2009,11:00,109,R,ugm-3,96,R,ugm-3,262,R,ugm-3
20-01-2009,12:00,84,R,ugm-3,76,R,ugm-3,204,R,ugm-3
20-01-2009,13:00,69,R,ugm-3,73,R,ugm-3,178,R,ugm-3
20-01-2009,14:00,56,R,ugm-3,57,R,ugm-3,143,R,ugm-3